QFA36 WSSS-YMML

Flight info

Callsign QFA36
Flight time N/A
Altitude 39000
Route ANITO8B ANITO B470 PKP L895 SAPDA A585 AD V255 BENDO Y12 ARBEY
Aircraft A332/H-SDE3GHIJ2J3J5M1RVWXY/LB2D1

Departure

Time N/A
Airport Singapore Changi Airport (WSSS)

Arrival

Time 2026-05-05 04:22
Airport Melbourne Airport (YMML)
Time Latitude Longitude Altitude Speed Heading
2026-05-05 03:51 -36.07228 141.81137 41220 ft 487 kts 114°
2026-05-05 03:51 -36.08562 141.84985 41220 ft 487 kts 114°
2026-05-05 03:51 -36.11228 141.92688 41211 ft 487 kts 114°
2026-05-05 03:52 -36.13887 142.00392 41211 ft 487 kts 114°
2026-05-05 03:52 -36.16542 142.08101 41211 ft 487 kts 114°
2026-05-05 03:53 -36.19190 142.15814 41211 ft 487 kts 114°
2026-05-05 03:53 -36.21835 142.23532 41211 ft 487 kts 114°
2026-05-05 03:54 -36.24476 142.31264 41203 ft 487 kts 114°
2026-05-05 03:54 -36.27112 142.38998 41201 ft 487 kts 114°
2026-05-05 03:55 -36.29747 142.46748 41202 ft 488 kts 113°
2026-05-05 03:55 -36.32374 142.54498 41202 ft 488 kts 113°
2026-05-05 03:56 -36.34981 142.62205 41202 ft 488 kts 113°
2026-05-05 03:56 -36.37599 142.69966 41202 ft 488 kts 113°
2026-05-05 03:57 -36.40213 142.77737 40872 ft 486 kts 113°
2026-05-05 03:57 -36.41511 142.81602 40418 ft 484 kts 113°
2026-05-05 03:57 -36.42801 142.85450 39922 ft 483 kts 113°
2026-05-05 03:58 -36.44087 142.89294 39397 ft 482 kts 113°
2026-05-05 03:58 -36.45369 142.93131 38889 ft 480 kts 113°
2026-05-05 03:58 -36.46646 142.96958 38374 ft 479 kts 113°
2026-05-05 03:58 -36.47918 143.00769 37849 ft 477 kts 113°
2026-05-05 03:59 -36.49183 143.04570 37327 ft 475 kts 113°
2026-05-05 03:59 -36.50439 143.08353 36798 ft 473 kts 113°
2026-05-05 03:59 -36.51690 143.12121 36270 ft 471 kts 113°
2026-05-05 03:59 -36.52936 143.15878 35702 ft 469 kts 114°
2026-05-05 04:00 -36.54177 143.19624 35115 ft 468 kts 114°
2026-05-05 04:00 -36.55414 143.23368 34436 ft 469 kts 114°
2026-05-05 04:00 -36.56656 143.27126 33687 ft 471 kts 114°
2026-05-05 04:00 -36.57905 143.30910 32886 ft 474 kts 114°
2026-05-05 04:01 -36.59157 143.34712 32071 ft 476 kts 114°
2026-05-05 04:01 -36.60415 143.38535 31228 ft 479 kts 114°
2026-05-05 04:01 -36.61671 143.42360 30618 ft 475 kts 114°
2026-05-05 04:01 -36.62913 143.46148 30057 ft 470 kts 114°
2026-05-05 04:02 -36.64142 143.49899 29445 ft 466 kts 114°
2026-05-05 04:02 -36.65361 143.53626 28840 ft 463 kts 114°
2026-05-05 04:02 -36.66566 143.57321 28234 ft 458 kts 114°
2026-05-05 04:02 -36.67761 143.60986 27626 ft 455 kts 114°
2026-05-05 04:03 -36.68930 143.64573 27034 ft 451 kts 114°
2026-05-05 04:03 -36.70119 143.68227 26413 ft 447 kts 114°
2026-05-05 04:03 -36.71266 143.71751 25832 ft 443 kts 114°
2026-05-05 04:03 -36.72418 143.75298 25227 ft 439 kts 114°
2026-05-05 04:04 -36.73559 143.78814 24620 ft 435 kts 114°
2026-05-05 04:04 -36.74688 143.82297 24029 ft 431 kts 114°
2026-05-05 04:04 -36.75802 143.85739 23436 ft 427 kts 114°
2026-05-05 04:04 -36.76908 143.89157 22851 ft 422 kts 114°
2026-05-05 04:05 -36.77999 143.92533 22272 ft 418 kts 114°
2026-05-05 04:05 -36.79079 143.95880 21693 ft 413 kts 114°
2026-05-05 04:05 -36.80144 143.99184 21125 ft 409 kts 114°
2026-05-05 04:05 -36.81199 144.02461 20568 ft 404 kts 113°
2026-05-05 04:06 -36.82239 144.05697 20006 ft 400 kts 113°
2026-05-05 04:06 -36.83269 144.08906 19457 ft 396 kts 113°
2026-05-05 04:06 -36.84285 144.12077 18906 ft 392 kts 113°
2026-05-05 04:06 -36.85290 144.15219 18359 ft 387 kts 113°
2026-05-05 04:07 -36.86282 144.18322 17817 ft 383 kts 113°
2026-05-05 04:07 -36.87265 144.21399 17273 ft 379 kts 113°
2026-05-05 04:07 -36.88241 144.24450 16624 ft 378 kts 113°
2026-05-05 04:07 -36.89215 144.27500 15999 ft 377 kts 113°
2026-05-05 04:08 -36.90180 144.30525 15456 ft 372 kts 113°
2026-05-05 04:08 -36.91131 144.33512 14930 ft 368 kts 113°
2026-05-05 04:08 -36.92083 144.36458 14397 ft 363 kts 116°
2026-05-05 04:08 -36.93362 144.39136 13901 ft 356 kts 128°
2026-05-05 04:09 -36.94891 144.41548 13397 ft 352 kts 131°
2026-05-05 04:09 -36.96468 144.43873 12883 ft 349 kts 132°
2026-05-05 04:09 -36.98052 144.46166 12367 ft 347 kts 133°
2026-05-05 04:09 -36.99627 144.48431 11865 ft 344 kts 133°
2026-05-05 04:10 -37.01191 144.50676 11348 ft 341 kts 133°
2026-05-05 04:10 -37.02739 144.52898 11008 ft 333 kts 133°
2026-05-05 04:10 -37.04201 144.55000 10932 ft 316 kts 133°
2026-05-05 04:10 -37.05608 144.57022 10852 ft 301 kts 133°
2026-05-05 04:11 -37.06960 144.58962 10702 ft 290 kts 133°
2026-05-05 04:11 -37.08269 144.60838 10481 ft 285 kts 133°
2026-05-05 04:11 -37.09574 144.62713 10082 ft 286 kts 133°
2026-05-05 04:11 -37.10880 144.64590 9720 ft 286 kts 133°
2026-05-05 04:12 -37.12187 144.66467 9378 ft 286 kts 133°
2026-05-05 04:12 -37.13493 144.68345 9018 ft 285 kts 132°
2026-05-05 04:12 -37.14788 144.70212 8667 ft 284 kts 132°
2026-05-05 04:12 -37.16120 144.72030 8322 ft 281 kts 139°
2026-05-05 04:13 -37.17757 144.73315 7974 ft 277 kts 161°
2026-05-05 04:13 -37.19604 144.73964 7621 ft 275 kts 169°
2026-05-05 04:13 -37.21477 144.74459 7277 ft 274 kts 170°
2026-05-05 04:13 -37.23342 144.74933 6930 ft 273 kts 170°
2026-05-05 04:14 -37.25196 144.75409 6586 ft 271 kts 169°
2026-05-05 04:14 -37.27003 144.75882 6473 ft 259 kts 169°
2026-05-05 04:14 -37.28718 144.76332 6397 ft 247 kts 169°
2026-05-05 04:14 -37.30400 144.76774 6074 ft 248 kts 169°
2026-05-05 04:15 -37.32094 144.77221 5749 ft 248 kts 169°
2026-05-05 04:15 -37.33789 144.77603 5449 ft 247 kts 172°
2026-05-05 04:15 -37.35469 144.77919 5279 ft 239 kts 173°
2026-05-05 04:15 -37.37063 144.78206 5232 ft 224 kts 173°
2026-05-05 04:16 -37.38563 144.78472 5116 ft 212 kts 174°
2026-05-05 04:16 -37.39980 144.78723 5020 ft 199 kts 174°
2026-05-05 04:16 -37.41315 144.78959 4899 ft 191 kts 174°
2026-05-05 04:16 -37.42629 144.79190 4662 ft 191 kts 174°
2026-05-05 04:17 -37.43948 144.79422 4432 ft 191 kts 174°
2026-05-05 04:17 -37.45259 144.79654 4214 ft 189 kts 174°
2026-05-05 04:17 -37.46557 144.79888 3988 ft 187 kts 173°
2026-05-05 04:17 -37.47837 144.80144 3778 ft 186 kts 171°
2026-05-05 04:18 -37.48676 144.80364 3658 ft 189 kts 171°
2026-05-05 04:18 -37.50433 144.80720 3373 ft 191 kts 174°
2026-05-05 04:18 -37.51739 144.80955 3115 ft 188 kts 174°
2026-05-05 04:18 -37.52590 144.81113 2940 ft 186 kts 174°
2026-05-05 04:19 -37.53860 144.81352 2696 ft 182 kts 173°
2026-05-05 04:19 -37.55068 144.81579 2462 ft 169 kts 174°
2026-05-05 04:19 -37.56196 144.81790 2243 ft 158 kts 174°
2026-05-05 04:19 -37.57245 144.81985 2054 ft 146 kts 174°
2026-05-05 04:20 -37.58203 144.82164 1855 ft 133 kts 174°
2026-05-05 04:20 -37.59096 144.82329 1693 ft 129 kts 173°
2026-05-05 04:20 -37.59985 144.82495 1515 ft 128 kts 173°
2026-05-05 04:20 -37.60867 144.82660 1345 ft 128 kts 173°
2026-05-05 04:21 -37.61753 144.82826 1172 ft 128 kts 173°
2026-05-05 04:21 -37.62635 144.82991 1015 ft 128 kts 173°
2026-05-05 04:21 -37.63517 144.83157 836 ft 128 kts 173°
2026-05-05 04:21 -37.64393 144.83322 658 ft 127 kts 173°
2026-05-05 04:22 -37.65265 144.83485 503 ft 126 kts 173°
2026-05-05 04:22 -37.66125 144.83643 412 ft 118 kts 173°
2026-05-05 04:22 -37.66747 144.83757 399 ft 62 kts 171°
2026-05-05 04:22 -37.67046 144.83812 388 ft 39 kts 172°
2026-05-05 04:23 -37.67320 144.83865 378 ft 41 kts 172°
2026-05-05 04:23 -37.67602 144.83917 370 ft 42 kts 172°
2026-05-05 04:23 -37.67807 144.83960 365 ft 13 kts 158°
2026-05-05 04:23 -37.67864 144.84026 362 ft 9 kts 118°
2026-05-05 04:24 -37.67872 144.84106 369 ft 9 kts 89°
2026-05-05 04:24 -37.67867 144.84178 363 ft 7 kts 78°
2026-05-05 04:24 -37.67858 144.84240 369 ft 8 kts 81°
2026-05-05 04:25 -37.67787 144.84365 371 ft 8 kts 26°
2026-05-05 04:25 -37.67737 144.84370 371 ft 7 kts 350°
2026-05-05 04:25 -37.67673 144.84357 376 ft 13 kts 352°
2026-05-05 04:25 -37.67558 144.84335 377 ft 20 kts 351°
2026-05-05 04:26 -37.67411 144.84308 381 ft 21 kts 352°
2026-05-05 04:26 -37.67264 144.84281 384 ft 21 kts 351°
2026-05-05 04:26 -37.67117 144.84254 387 ft 21 kts 352°
2026-05-05 04:26 -37.66970 144.84226 390 ft 21 kts 351°
2026-05-05 04:27 -37.66825 144.84199 395 ft 21 kts 352°
2026-05-05 04:27 -37.66738 144.84186 397 ft 9 kts
2026-05-05 04:27 -37.66699 144.84231 399 ft 8 kts 71°
2026-05-05 04:27 -37.66686 144.84328 398 ft 13 kts 81°
2026-05-05 04:28 -37.66673 144.84447 402 ft 14 kts 82°
2026-05-05 04:28 -37.66658 144.84574 403 ft 15 kts 81°
2026-05-05 04:28 -37.66643 144.84698 405 ft 11 kts 81°
2026-05-05 04:28 -37.66642 144.84778 406 ft 8 kts 113°
2026-05-05 04:29 -37.66694 144.84813 401 ft 10 kts 167°
2026-05-05 04:29 -37.66736 144.84824 398 ft 3 kts 178°
2026-05-05 04:29 -37.66755 144.84805 398 ft 4 kts 238°
2026-05-05 04:29 -37.66764 144.84762 402 ft 7 kts 253°
2026-05-05 04:30 -37.66770 144.84736 402 ft 2 kts 253°
2026-05-05 04:30 -37.66772 144.84730 402 ft 0 kts 253°